Probability
0 0 0 0 0 0 0 0 0 0 0 0 0 0 10 13 10 16 23 23 26 16 16 16 16 23 32 26 23 29 29 26 19 19 13 10 3 0 0 3 3 0 0 0
0 0 0 0 0 0 0 0 0 0 0 0 0 0 0 10 6 6 6 10 10 10 10 19 16 23 29 29 29 26 26 23 23 23 13 3 3 0 0 3 3 0 0 0
0 0 0 0 0 0 0 0 0 0 0 0 0 0 0 6 6 6 6 6 10 3 10 10 19 23 29 29 29 29 26 23 23 10 3 3 0 0 3 3 3 0 0 0
0 0 0 0 0 0 0 0 0 0 0 0 0 0 0 0 0 3 6 6 6 6 6 13 16 16 26 29 26 26 23 19 13 6 3 3 3 3 3 0 3 3 3 3
0 0 0 0 0 0 0 0 0 0 0 0 0 0 0 0 3 0 3 3 3 3 3 13 16 16 19 19 26 23 23 16 6 3 3 3 3 3 0 0 0 3 3 3
0 0 0 0 0 0 0 0 0 0 0 0 0 0 0 0 0 0 0 3 3 3 6 10 13 16 19 19 26 26 19 13 6 6 3 3 3 3 0 0 0 0 0 0
0 0 0 0 0 0 0 0 0 0 0 0 0 0 0 0 0 0 0 3 3 0 10 6 10 13 16 16 23 26 16 10 6 6 6 6 3 3 3 3 3 3 0 0
0 0 0 0 0 0 0 0 0 0 0 0 0 0 0 0 0 0 0 0 3 0 6 6 10 10 10 16 19 23 19 13 6 6 6 6 3 3 3 3 3 3 3 3
0 0 0 0 0 0 0 0 0 0 0 0 0 0 0 0 0 0 0 0 3 3 10 10 10 13 13 23 26 26 23 13 10 10 10 6 6 3 3 3 3 3 3 3
0 0 0 0 0 0 0 0 0 0 0 0 0 0 0 0 0 0 0 0 6 3 6 10 10 10 16 19 26 23 19 13 10 10 13 10 6 6 3 3 3 3 3 3
0 0 0 0 0 0 0 0 0 0 0 0 0 0 0 0 0 0 0 0 3 3 3 3 6 6 10 16 23 19 16 10 10 10 10 10 10 6 6 3 3 3 3 3
0 0 0 0 0 0 0 0 0 0 0 0 0 0 0 0 0 0 0 0 3 3 3 6 10 13 13 13 16 16 16 13 13 13 10 10 10 6 6 6 6 3 3 3
0 0 0 0 0 0 0 0 0 0 0 0 0 0 0 0 0 0 0 0 0 0 0 3 3 6 10 10 13 16 13 10 10 16 10 10 10 10 10 6 6 3 3 3
0 0 0 0 0 0 0 0 0 0 0 0 0 0 0 0 0 0 0 0 0 0 0 3 6 6 10 6 10 6 6 10 10 10 10 10 10 10 10 10 6 6 3 3
0 0 0 0 0 0 0 0 0 0 0 0 0 0 0 0 0 0 0 0 0 0 0 0 3 3 6 6 3 10 10 3 6 10 10 6 6 10 10 6 6 3 3 0
0 0 0 0 0 0 0 0 0 0 0 0 0 0 0 0 0 0 0 0 0 0 0 0 0 0 0 3 6 10 10 3 3 6 10 10 6 6 6 6 3 3 3 6
0 0 0 0 0 0 0 0 0 0 0 0 0 0 0 0 0 0 0 0 0 0 0 0 0 0 0 0 6 10 10 6 3 6 13 6 6 3 3 3 3 3 3 3
0 0 0 0 0 0 0 0 0 0 0 0 0 0 0 0 0 0 3 0 0 0 0 0 0 0 0 0 0 3 3 3 3 6 10 3 3 3 3 3 0 3 3 6
0 0 0 0 0 0 0 0 0 0 0 0 0 0 0 0 0 3 3 0 0 0 0 0 0 0 0 0 0 3 3 3 6 6 6 6 3 3 3 3 3 0 0 0
0 0 0 0 0 0 0 0 0 0 0 0 0 0 0 0 0 0 0 0 0 0 0 0 0 0 0 0 0 0 0 6 6 3 6 3 3 3 3 3 0 0 0 0
0 0 0 0 0 0 0 0 0 0 0 0 0 0 0 0 0 0 0 0 0 0 0 0 0 0 0 0 0 0 0 0 0 0 0 0 0 0 0 0 0 0 0 0
0 0 0 0 0 0 0 0 0 0 0 0 0 0 0 0 0 0 0 0 0 0 0 0 0 0 0 0 0 0 0 0 0 0 0 0 0 0 0 0 0 0 0 0
0 0 0 0 0 0 0 0 0 0 0 0 0 0 0 0 0 0 0 0 0 0 0 0 0 0 0 0 0 0 0 0 0 0 0 0 0 0 0 0 0 0 0 0
0 0 0 0 0 0 0 0 0 0 0 0 0 0 0 0 0 0 0 0 0 0 0 0 0 0 0 0 0 0 0 0 0 0 0 0 0 0 0 0 0 0 0 0
0 0 0 0 0 0 0 0 0 0 0 0 0 0 0 0 0 0 0 0 0 0 0 0 0 0 0 0 0 0 0 0 0 0 0 0 0 0 0 0 0 0 0 0
0 0 0 0 0 0 0 0 0 0 0 0 0 0 0 0 0 0 0 0 0 0 0 0 0 0 0 0 0 0 0 0 0 0 0 0 0 0 0 0 0 0 0 0
Height
5851 5853 5853 5853 5853 5854 5855 5856 5856 5857 5856 5855 5855 5854 5852 5850 5848 5845 5842 5839 5836 5833 5830 5827 5825 5823 5822 5822 5824 5827 5831 5835 5839 5843 5847 5850 5854 5857 5860 5863 5865 5866 5868 5870
5848 5849 5849 5849 5850 5851 5852 5854 5854 5854 5853 5853 5852 5851 5849 5847 5845 5843 5840 5837 5835 5832 5829 5826 5823 5821 5821 5821 5822 5825 5829 5833 5837 5841 5844 5848 5852 5855 5858 5861 5863 5865 5867 5868
5844 5845 5845 5846 5848 5849 5850 5851 5851 5851 5851 5850 5849 5849 5847 5845 5843 5841 5838 5835 5833 5830 5828 5826 5823 5821 5820 5820 5821 5823 5827 5830 5835 5839 5843 5846 5850 5853 5856 5859 5861 5863 5865 5867
5840 5841 5842 5843 5844 5846 5847 5848 5848 5848 5848 5847 5847 5846 5845 5843 5841 5838 5836 5834 5831 5829 5827 5825 5823 5821 5819 5819 5819 5821 5825 5829 5833 5837 5841 5845 5848 5851 5854 5857 5859 5862 5864 5865
5836 5837 5838 5840 5842 5843 5845 5845 5845 5845 5845 5845 5845 5843 5843 5840 5838 5837 5835 5832 5830 5828 5826 5824 5823 5821 5819 5818 5819 5821 5823 5827 5831 5835 5839 5843 5846 5849 5852 5855 5858 5860 5862 5864
5832 5833 5835 5837 5838 5839 5841 5842 5842 5842 5843 5843 5842 5841 5841 5839 5837 5834 5833 5831 5829 5827 5826 5824 5822 5820 5819 5818 5819 5820 5823 5826 5829 5833 5836 5840 5844 5847 5850 5853 5856 5858 5860 5862
5828 5830 5831 5833 5835 5836 5837 5839 5839 5839 5840 5840 5840 5839 5839 5837 5835 5833 5831 5829 5828 5827 5825 5824 5822 5820 5818 5819 5820 5821 5823 5826 5829 5831 5835 5839 5842 5845 5848 5851 5854 5856 5859 5861
5824 5827 5828 5830 5831 5833 5834 5835 5836 5837 5837 5837 5837 5836 5837 5835 5833 5831 5830 5829 5827 5826 5825 5823 5822 5820 5819 5821 5821 5823 5824 5826 5828 5831 5834 5838 5841 5844 5846 5849 5852 5854 5856 5858
5820 5823 5824 5825 5827 5828 5829 5831 5832 5833 5833 5833 5834 5835 5835 5833 5832 5831 5829 5828 5826 5825 5824 5823 5822 5821 5821 5821 5822 5824 5825 5826 5828 5831 5834 5837 5840 5842 5844 5847 5849 5852 5854 5856
5815 5818 5820 5821 5822 5824 5826 5827 5828 5829 5829 5829 5831 5832 5832 5831 5830 5829 5828 5826 5825 5824 5823 5822 5822 5822 5822 5822 5822 5823 5825 5827 5828 5831 5833 5836 5838 5840 5843 5845 5847 5849 5851 5853
5811 5813 5816 5817 5818 5819 5821 5822 5823 5824 5825 5826 5827 5831 5830 5829 5828 5828 5826 5825 5824 5822 5822 5821 5821 5821 5821 5822 5821 5822 5824 5826 5828 5830 5832 5834 5836 5839 5841 5842 5844 5846 5848 5850
5805 5808 5810 5812 5814 5815 5816 5817 5819 5820 5821 5821 5823 5828 5826 5826 5825 5825 5824 5823 5822 5821 5820 5820 5820 5821 5821 5821 5822 5822 5823 5825 5827 5828 5830 5832 5834 5836 5838 5840 5842 5843 5845 5846
5799 5801 5803 5806 5809 5810 5810 5811 5813 5814 5816 5816 5818 5823 5822 5822 5822 5822 5821 5821 5820 5819 5819 5819 5819 5820 5820 5820 5820 5821 5821 5822 5824 5826 5828 5830 5832 5833 5835 5837 5839 5840 5841 5842
5793 5794 5796 5799 5801 5802 5803 5805 5807 5808 5809 5811 5813 5816 5818 5817 5818 5818 5818 5817 5816 5816 5816 5816 5817 5817 5818 5818 5819 5819 5819 5820 5821 5824 5825 5827 5829 5830 5832 5833 5835 5836 5837 5838
5785 5786 5787 5789 5791 5793 5795 5798 5799 5801 5803 5805 5808 5810 5812 5813 5814 5814 5814 5814 5813 5813 5814 5814 5814 5814 5815 5816 5816 5817 5818 5819 5820 5821 5822 5823 5825 5827 5828 5829 5830 5831 5832 5833
5777 5777 5778 5780 5782 5783 5784 5788 5791 5793 5796 5798 5801 5804 5806 5807 5809 5809 5810 5810 5810 5810 5811 5811 5811 5812 5813 5813 5814 5814 5815 5816 5817 5818 5818 5819 5821 5822 5823 5824 5825 5826 5827 5827
5767 5768 5768 5769 5772 5772 5774 5779 5782 5785 5788 5791 5794 5798 5800 5802 5803 5804 5805 5805 5806 5806 5807 5807 5807 5808 5809 5810 5811 5811 5812 5813 5813 5814 5814 5815 5816 5817 5818 5819 5820 5820 5821 5821
5758 5758 5758 5759 5762 5761 5768 5771 5773 5775 5779 5782 5786 5790 5793 5795 5796 5797 5799 5800 5800 5801 5802 5803 5804 5804 5805 5806 5806 5807 5807 5808 5809 5809 5810 5810 5811 5812 5813 5813 5814 5814 5814 5814
5749 5749 5749 5750 5751 5752 5758 5761 5764 5767 5771 5775 5778 5782 5785 5787 5789 5791 5792 5793 5794 5795 5797 5798 5799 5799 5800 5801 5802 5802 5803 5804 5804 5805 5805 5806 5806 5806 5807 5807 5807 5807 5807 5807
5741 5741 5742 5742 5742 5745 5751 5753 5755 5759 5762 5767 5770 5774 5777 5780 5782 5785 5786 5788 5789 5790 5791 5792 5793 5794 5795 5796 5797 5797 5798 5799 5799 5799 5800 5800 5800 5800 5800 5800 5800 5799 5799 5798
5735 5734 5734 5734 5735 5737 5742 5745 5748 5753 5757 5760 5762 5766 5769 5772 5775 5778 5779 5781 5783 5784 5786 5787 5788 5789 5790 5791 5792 5792 5793 5793 5793 5793 5793 5793 5793 5794 5793 5792 5791 5791 5790 5790
5728 5728 5728 5728 5729 5734 5736 5738 5741 5745 5748 5751 5754 5758 5761 5765 5767 5770 5773 5775 5777 5778 5780 5782 5783 5784 5784 5785 5786 5786 5786 5786 5786 5787 5786 5786 5786 5786 5785 5783 5782 5782 5781 5780
5722 5722 5722 5723 5726 5727 5728 5731 5734 5737 5741 5744 5747 5750 5754 5757 5761 5763 5766 5768 5770 5772 5774 5776 5777 5777 5778 5779 5779 5780 5780 5780 5780 5780 5779 5779 5778 5777 5776 5775 5773 5772 5771 5770
5717 5716 5717 5717 5719 5720 5723 5725 5727 5730 5734 5737 5740 5744 5748 5751 5754 5757 5760 5762 5764 5766 5768 5769 5770 5771 5772 5772 5773 5773 5773 5773 5773 5772 5771 5771 5770 5768 5767 5765 5763 5762 5760 5759
5712 5712 5712 5712 5714 5715 5717 5719 5722 5724 5728 5731 5735 5738 5742 5745 5748 5751 5753 5755 5757 5759 5761 5762 5764 5764 5765 5765 5766 5766 5765 5765 5764 5763 5762 5761 5760 5758 5757 5755 5753 5751 5749 5748
5708 5708 5708 5708 5709 5711 5713 5714 5717 5720 5723 5727 5730 5733 5736 5739 5742 5744 5747 5749 5751 5753 5755 5756 5757 5758 5758 5758 5758 5758 5758 5757 5756 5754 5753 5752 5750 5748 5746 5744 5742 5740 5738 5736
Wind_Speed
16 16 15 16 16 17 16 15 15 15 15 15 13 13 14 14 15 17 17 18 18 17 15 15 12 8 8 10 13 16 19 21 21 20 20 20 20 18 16 14 13 12 11 10
16 15 17 18 17 17 17 17 16 17 17 16 14 13 14 13 15 16 16 17 17 16 15 14 12 7 7 8 12 16 19 21 21 21 20 20 20 18 16 15 13 13 12 11
16 17 19 18 18 17 17 17 17 17 17 16 15 13 13 13 15 15 16 16 15 13 13 13 11 9 6 7 11 16 19 21 21 20 19 18 18 17 17 15 14 13 13 12
16 19 20 19 18 17 17 18 18 19 18 16 16 14 12 14 15 15 15 15 14 12 11 11 10 9 6 7 10 15 18 19 20 20 20 19 18 18 17 16 15 14 14 13
18 20 20 19 18 18 18 20 20 19 18 17 16 15 12 13 15 15 14 13 13 12 11 10 9 8 6 6 9 14 17 18 19 20 21 21 19 18 18 17 16 15 14 14
19 21 20 19 19 20 19 20 20 20 18 17 15 14 11 13 14 15 13 12 12 11 10 9 8 8 6 4 7 11 15 18 19 20 20 20 19 19 18 17 17 16 15 15
19 20 19 19 20 21 21 20 21 20 18 17 15 13 12 13 14 13 12 11 11 11 10 9 8 7 4 4 7 9 13 16 17 18 19 19 19 18 18 17 17 16 16 16
18 17 17 17 18 20 21 21 21 21 19 17 15 13 12 13 12 11 11 11 11 11 10 8 7 5 3 4 5 8 11 13 14 16 17 18 18 18 17 17 17 17 16 16
18 18 18 18 19 20 21 22 22 22 21 19 16 13 11 11 11 11 11 11 11 10 9 8 6 4 4 5 5 7 9 11 12 14 15 16 17 17 17 17 17 17 16 16
20 19 20 20 20 21 22 22 23 22 22 21 17 14 11 11 11 12 10 9 11 11 10 8 6 5 5 6 7 8 10 11 12 13 14 15 16 16 17 17 17 17 17 17
22 21 20 22 23 23 23 23 23 24 24 22 19 14 12 11 10 10 9 10 11 12 10 8 8 7 6 7 8 9 11 12 13 14 15 16 16 16 17 18 19 19 19 19
26 25 24 24 25 25 26 26 25 25 24 23 21 15 14 13 12 11 11 11 11 11 10 9 8 8 7 8 9 10 11 12 13 15 16 16 16 16 17 18 19 19 20 20
30 30 28 27 27 27 28 28 27 27 26 25 23 18 15 14 14 13 13 12 12 11 10 9 9 9 9 9 9 10 11 12 13 15 16 17 17 18 18 18 19 20 21 21
34 33 33 31 30 30 30 30 29 29 28 26 23 19 17 16 15 14 14 13 13 11 11 11 11 11 10 9 9 10 11 11 12 14 15 18 18 19 19 19 19 20 21 21
37 37 37 35 33 33 33 32 32 31 29 28 24 22 19 18 17 16 15 14 13 12 13 13 13 12 12 11 10 10 11 11 12 13 14 16 18 19 20 20 20 20 21 22
40 41 40 39 37 37 36 34 33 33 32 30 27 24 22 20 19 18 17 16 15 14 15 16 15 14 13 13 12 11 11 11 12 13 14 16 17 19 20 20 21 21 22 23
39 40 42 41 40 40 40 35 34 33 33 31 30 27 24 23 22 21 20 19 18 17 17 17 16 15 15 14 13 12 12 12 13 13 14 16 18 18 19 20 21 23 24 24
35 36 38 39 38 40 36 33 33 32 32 32 31 28 26 24 23 22 20 20 20 19 18 18 17 17 17 17 16 16 15 15 15 16 17 18 19 20 21 22 23 24 25 27
31 33 34 34 35 35 32 31 31 32 32 31 30 29 28 27 25 23 21 21 20 20 20 19 19 19 19 19 19 19 19 18 19 19 19 20 21 22 23 24 25 27 28 29
28 29 30 31 32 32 28 28 29 30 31 29 29 29 28 28 26 24 23 21 21 21 20 20 21 21 20 20 20 20 20 21 21 22 23 23 24 24 25 26 28 29 29 30
25 25 26 27 28 27 26 26 26 28 27 27 28 28 28 26 26 25 24 23 22 21 20 20 21 22 21 21 21 22 22 23 24 25 26 26 27 28 29 30 31 32 32 32
22 22 23 25 26 24 22 23 24 25 25 25 26 27 27 27 26 25 24 23 22 21 20 20 20 21 22 23 23 23 23 24 25 26 28 28 29 29 30 31 31 31 32 33
20 19 20 21 22 22 22 22 22 23 23 24 23 24 25 25 25 24 23 22 23 22 21 21 22 22 23 23 23 23 24 25 26 27 27 28 29 31 32 32 33 33 34 34
18 18 18 19 19 20 19 19 20 21 22 22 22 22 23 24 23 23 22 22 22 22 21 22 22 22 22 23 23 25 25 26 27 27 28 29 30 32 33 34 35 35 36 36
15 16 17 18 18 18 19 19 19 20 20 21 21 21 22 22 23 23 23 23 22 22 22 22 22 23 23 24 25 26 26 27 28 29 30 32 33 34 34 35 36 37 37 38
13 13 14 14 14 16 17 18 19 20 20 21 21 21 21 22 21 21 22 22 22 22 22 22 22 23 24 24 25 26 27 29 30 31 32 33 34 35 36 37 38 38 38 39
Wind_Direction
266 261 255 249 249 249 251 254 256 261 271 278 287 299 308 315 321 324 323 322 324 322 322 322 316 295 262 229 216 205 202 202 203 206 208 209 210 214 220 222 225 225 228 229
261 254 247 248 249 249 252 254 256 261 272 280 289 303 310 318 323 325 324 324 323 320 317 319 318 293 270 232 213 208 206 204 202 204 202 204 207 211 213 216 219 224 227 228
256 248 249 248 248 250 254 256 257 262 272 283 291 301 310 318 322 323 320 319 320 319 317 315 314 304 276 235 214 205 203 201 201 201 199 203 205 206 209 213 215 221 223 221
249 249 249 248 248 251 252 256 258 266 275 283 297 306 313 317 322 327 323 317 318 318 319 316 309 303 280 240 212 202 202 202 202 202 202 205 208 207 207 210 215 218 218 216
243 245 247 247 246 249 250 255 262 270 277 287 298 307 319 319 322 324 326 321 321 323 319 313 305 301 287 246 208 199 200 200 201 203 204 204 206 207 207 210 214 215 215 215
241 243 245 244 242 247 250 254 262 269 276 284 294 302 317 320 323 323 322 320 321 323 322 314 304 298 283 241 204 198 195 196 197 199 200 202 206 208 209 212 215 216 216 216
236 240 241 240 240 246 252 257 263 267 272 281 288 293 309 315 324 323 318 317 320 321 319 317 310 301 275 223 204 190 190 191 195 196 196 200 204 206 210 214 214 216 218 219
233 233 238 239 240 244 251 256 261 266 271 277 282 292 305 309 322 323 318 314 318 319 315 313 312 302 264 212 194 192 191 191 192 192 194 199 203 206 210 213 215 218 222 222
232 226 231 233 235 238 242 249 258 264 270 276 281 290 300 307 314 318 315 309 314 317 309 304 300 280 246 224 209 201 194 193 195 197 201 204 209 211 212 216 220 222 225 227
239 233 230 233 235 240 244 248 252 260 269 274 277 286 295 303 309 313 307 302 310 309 299 291 283 261 241 229 218 211 207 205 204 205 208 208 212 215 218 222 224 226 229 232
250 247 239 238 239 241 245 250 254 259 266 272 276 279 290 293 303 306 301 298 302 303 292 273 262 255 242 231 224 213 213 214 213 214 215 215 219 221 224 226 229 232 235 238
256 256 253 249 247 246 247 249 253 259 264 269 272 273 279 282 289 292 291 296 300 296 281 267 256 251 247 234 227 222 218 220 219 218 219 220 223 226 229 233 236 239 241 243
261 262 261 257 252 251 250 251 254 258 262 265 269 270 271 278 282 286 286 286 291 286 273 265 262 254 247 241 236 226 223 223 224 225 224 227 229 231 234 240 244 246 246 247
264 265 265 262 258 256 254 254 256 259 261 265 268 267 267 275 278 280 281 281 280 274 269 266 263 256 251 246 242 233 226 224 228 231 234 235 236 237 240 243 245 247 249 251
263 266 267 266 263 260 257 255 257 259 262 263 263 263 265 268 271 274 277 278 274 265 264 263 259 255 252 248 246 241 234 235 235 236 239 239 240 242 244 246 247 250 252 256
261 264 265 265 264 262 259 256 255 257 257 259 260 262 264 266 268 270 271 271 268 265 263 262 256 253 249 247 247 246 240 240 241 240 243 245 244 245 247 249 251 253 257 261
261 262 263 264 263 262 259 258 258 256 255 256 257 258 261 264 265 265 265 266 262 261 261 257 251 250 248 248 250 250 246 250 253 253 253 251 249 249 250 253 256 257 260 263
263 263 263 264 263 260 260 257 255 253 252 252 253 254 254 258 261 259 260 263 259 258 255 254 252 251 252 254 252 253 255 258 262 262 261 259 256 257 259 261 262 262 265 266
264 263 262 262 262 260 257 255 252 251 251 250 251 251 251 254 256 255 256 258 258 255 250 251 253 252 253 254 253 255 258 261 264 267 267 267 264 264 265 266 267 268 269 269
263 262 261 261 261 259 256 253 251 250 248 246 248 248 249 251 250 251 252 254 254 252 251 252 252 250 250 253 253 256 259 263 265 267 268 270 269 269 268 269 269 270 270 271
262 260 260 260 258 256 253 250 248 246 246 244 244 244 245 246 246 247 247 249 252 248 249 252 253 252 253 256 257 257 260 263 266 269 270 271 272 273 272 272 270 270 272 274
261 260 259 258 254 253 252 249 245 244 242 241 240 240 241 241 243 244 246 250 247 244 246 252 254 254 254 256 257 259 261 265 267 270 272 273 273 273 277 278 275 274 275 275
257 256 255 253 252 250 250 245 243 241 240 239 237 236 236 237 239 242 243 245 243 243 247 252 255 255 256 257 259 262 265 268 269 271 274 274 275 276 277 278 278 277 277 277
256 255 255 253 250 245 243 243 240 236 233 232 231 229 231 233 236 236 237 241 243 245 249 251 254 256 258 260 262 265 267 269 272 274 277 278 278 279 279 280 280 280 279 279
258 254 254 253 247 242 239 236 234 231 227 225 225 226 226 230 232 233 235 238 241 245 247 251 254 257 259 261 264 266 269 273 276 278 279 280 281 282 282 283 284 283 282 282
262 255 245 239 237 235 231 228 225 223 223 223 222 222 223 226 229 232 232 236 240 243 246 251 255 259 261 264 266 269 273 276 279 281 282 283 283 284 284 285 285 285 285 284